Lid_Strength_Index
8 11 13 11 10 11 11 11 12 10 9 10 9 9 9 7 8 9 9 9 8 7 6 6 6 5 5 4 4 4 5 5 5 5 5 5 4 4 4 5 5 5 5 5
11 13 10 10 10 10 11 12 11 10 10 10 10 10 8 9 10 10 10 9 8 8 7 7 6 6 5 5 5 5 5 5 5 5 5 4 4 4 4 5 5 5 5 4
13 12 10 10 12 12 12 12 12 13 11 10 11 10 11 10 10 11 10 9 9 8 8 8 7 6 6 6 5 5 5 5 5 5 5 4 4 4 5 5 5 5 5 4
11 9 11 11 13 12 14 11 11 11 13 13 10 17 13 10 11 11 11 10 10 9 8 8 8 7 6 6 5 5 5 5 5 5 5 5 5 5 5 5 5 5 5 4
12 11 11 11 11 9 12 10 11 11 11 11 12 15 12 10 10 11 11 11 10 9 9 9 8 7 6 6 5 5 5 5 5 5 5 4 5 5 5 5 5 5 5 4
10 9 9 10 10 9 9 10 10 10 11 17 13 14 15 12 14 12 11 11 11 10 9 8 7 7 7 6 5 5 5 6 5 5 5 5 5 5 5 5 5 5 4 4
12 11 10 10 11 10 10 11 17 18 18 17 13 14 13 13 12 13 13 12 12 11 11 10 9 8 7 7 6 6 6 6 6 6 5 5 5 5 6 5 5 4 4 4
16 17 12 10 10 11 11 11 15 20 19 16 14 15 13 13 12 12 12 12 12 12 12 12 11 10 10 9 8 7 7 7 6 6 6 5 5 5 5 5 4 4 4 4
14 15 12 11 10 10 12 14 11 15 17 16 14 14 14 12 13 13 13 13 13 13 13 13 12 12 11 11 10 10 9 8 7 7 6 6 5 5 5 5 5 4 4 4
10 14 11 11 10 10 10 9 14 13 19 19 15 15 14 15 14 14 14 14 14 13 13 13 13 13 12 12 11 11 11 10 10 9 8 6 5 5 5 5 5 5 4 5
10 12 14 11 11 12 12 13 12 12 13 17 18 16 14 14 15 15 15 14 14 14 14 13 13 13 13 13 12 12 12 12 11 9 9 8 6 6 6 5 5 5 4 5
10 12 15 15 12 11 10 11 11 14 15 14 15 15 13 13 14 14 14 14 14 13 13 13 13 13 13 13 13 13 13 13 12 11 10 9 9 7 6 6 6 5 5 5
10 14 18 16 13 12 13 12 12 12 12 15 15 15 13 13 14 14 14 14 14 14 13 13 13 13 14 14 14 14 14 14 13 13 12 12 12 11 10 9 8 7 7 6
9 13 15 17 14 13 15 14 13 13 15 15 15 16 16 15 15 15 15 14 14 14 14 14 14 14 14 13 13 13 13 13 13 13 13 14 13 13 13 12 11 10 9 8
11 15 13 14 13 13 14 14 13 14 13 15 14 15 15 15 15 15 15 15 16 16 16 16 16 16 16 16 16 14 14 14 13 13 14 14 13 13 13 13 13 12 11 10
11 14 13 15 13 13 14 13 13 13 13 13 14 16 13 14 15 15 16 16 17 17 18 17 17 17 18 18 18 16 16 17 16 17 17 16 16 15 14 14 14 13 13 13
12 13 14 17 14 14 16 15 14 15 15 15 14 15 15 16 16 16 16 16 17 17 18 18 18 18 19 19 18 18 18 18 18 19 18 18 18 17 16 15 15 14 14 14
13 13 13 16 15 20 16 14 14 14 15 15 15 15 14 15 15 15 15 16 17 17 18 18 18 18 18 19 19 18 18 19 19 19 19 19 19 19 18 17 17 17 15 15
12 12 15 16 16 16 15 15 15 15 16 14 15 15 14 14 15 16 15 15 16 17 17 17 17 17 18 19 18 18 18 19 19 20 20 19 19 19 18 18 18 17 17 17
13 13 14 15 17 18 16 15 13 14 16 14 14 15 15 15 17 16 15 15 16 16 16 17 17 17 18 18 18 18 18 19 19 19 19 19 18 19 19 18 18 17 17 17
14 14 15 15 16 15 15 14 13 17 16 14 14 14 13 14 14 14 14 15 15 16 16 16 17 17 18 18 18 18 18 19 19 19 19 19 19 19 18 18 18 18 18 17
16 16 16 15 16 18 12 13 15 13 12 13 13 13 13 13 13 14 14 14 15 15 15 16 16 16 16 16 17 18 18 18 18 19 20 21 20 20 19 19 18 18 18 17
17 14 13 13 13 13 10 12 11 10 11 12 12 12 12 13 13 13 14 14 14 15 15 16 17 17 16 16 17 18 18 18 19 21 21 20 19 18 18 18 19 18 18 18
15 15 15 15 14 13 12 11 11 10 10 11 11 11 12 13 13 13 13 13 14 14 15 16 17 17 17 16 17 18 18 19 22 21 20 19 19 18 18 17 17 17 17 18
14 15 15 15 15 14 13 11 10 11 10 11 11 11 12 12 13 13 13 13 14 14 15 16 16 17 17 17 17 18 19 20 21 21 20 19 18 19 19 18 18 17 17 16
15 15 15 15 12 12 12 11 9 11 11 11 11 13 12 12 12 13 14 13 14 15 16 17 17 18 18 19 20 20 21 22 23 22 20 20 20 19 18 18 18 16 16 15